Location: Kuffner-Sternwarte
(48.2130°N, 16.2960°E)
Time: 05:02:26
(UTC+02:00)

Envisat - Pass Details

Date: 29 September 2024
Orbit: 762 x 764 km, 98.3° (Epoch: 04 October)

Event Time Altitude Azimuth Distance (km) Brightness Sun altitude
Rises 05:35:47 0° 3° (N) 3,238 6.4 -13.4°
Reaches altitude 10° 05:38:35 10° 348° (NNW) 2,307 5.5 -12.9°
Maximum altitude 05:42:17 21° 301° (WNW) 1,675 4.3 -12.3°
Enters shadow 05:44:23 16° 269° (W) 1,900 4.4 -12.0°
